{"data":{"norad_id":58978,"intl_designator":"2024-031P","name":"STARLINK-31355","alt_names":[],"object_type":"PAYLOAD","status":"ACTIVE","operator":null,"country":"US","launch_date":"2024-02-15","launch_site_code":"AFWTR","launch_vehicle":null,"mission":null,"orbit_class":"UNKNOWN","rcs_meters":null,"size_class":null,"mass_kg":null,"dimensions":null,"purposes":["comms"],"wikipedia_slug":null,"has_3d_model":false,"image_url":null,"decayed_at":null,"tle_current":{"epoch":"2026-09-20T22:00:47.385504Z","epoch_age_seconds":119469,"freshness":"FRESH","line1":"1 58978U 24031P   26263.91721511  .00008325  00000+0  25736-3 0  9996","line2":"2 58978  53.1579 107.7377 0001820  68.3609 291.7588 15.34388337146437","mean_motion":15.34388337,"eccentricity":0.000182,"inclination_deg":53.1579,"raan_deg":107.7377,"arg_perigee_deg":68.3609,"mean_anomaly_deg":291.7588,"bstar":0.00025736,"rev_number":14643,"period_min":93.848471425132,"perigee_km":461.49286608778,"apogee_km":463.98294455331,"semimajor_km":6840.8749053205,"source":"CELESTRAK","updated_at":"2026-09-21T09:00:34.021319Z"}}}